Regional Weather Roundup
Issued by NWS

Home | Current Version | Previous Version | Text Only | Print | Product List | Glossary Off
Versions: 1 2 3 4 5 6 7 8 9 10 11 12 13 14 15 16 17 18 19 20 21 22 23 24 25 26 27 28 29 30 31 32 33 34 35 36 37 38 39 40 41 42 43 44 45 46 47 48 49 50

000
ASUS43 KOAX 281610
RWRNE

WEATHER ROUNDUP FOR NEBRASKA
NATIONAL WEATHER SERVICE OMAHA NE
1000 AM CST FRI NOV 28 2014

NOTES: SATELLITE DATA IS BEING USED TO AUGMENT CLOUD COVER ABOVE
       12000 FEET.
       "FAIR" INDICATES FEW OR NO CLOUDS BELOW 12,000 FEET WITH NO
       SIGNIFICANT WEATHER AND/OR OBSTRUCTIONS TO VISIBILITY.

  * THESE STATIONS DO NOT REPORT WEATHER SUCH AS RAIN...SNOW OR FOG.

NEZ001>004-019>022-054>056-281700-
NEBRASKA PANHANDLE

CITY           SKY/WX    TMP DP  RH WIND       PRES   REMARKS
SCOTTSBLUFF    MOSUNNY   57  24  28 W12       29.83S
ALLIANCE       SUNNY     53  26  35 W9        29.80S
CHADRON        PTSUNNY  N/A N/A N/A CALM      29.78R
KIMBALL        CLOUDY    53  19  26 W12       29.88R
SIDNEY         MOSUNNY   52  25  35 W14       29.87F
$$

NEZ057>060-069>072-079>082-281700-
SOUTHWEST NEBRASKA

CITY           SKY/WX    TMP DP  RH WIND       PRES   REMARKS
NORTH PLATTE   MOSUNNY   39  29  67 NW5       29.82F
IMPERIAL       MOSUNNY   47  26  44 W6        29.85F
LEXINGTON      SUNNY     42  30  62 NW3       29.82F
MCCOOK         SUNNY     44  26  49 SW9       29.86F
OGALLALA       MOSUNNY   40  33  76 W10       29.83F WCI  33
$$

NEZ005>010-023>029-035>040-094-281700-
NORTH CENTRAL NEBRASKA

CITY           SKY/WX    TMP DP  RH WIND       PRES   REMARKS
VALENTINE      MOSUNNY   47  30  51 SW5       29.71S
AINSWORTH      SUNNY     50  29  44 SW13      29.72S
BROKEN BOW     SUNNY     51  30  44 W6        29.78F
O`NEILL        MOSUNNY   45  32  60 S8        29.73F
ORD            MOSUNNY   33  23  66 CALM      29.77F
THEDFORD       PTSUNNY   53  28  37 W12       29.76F
$$

NEZ041-046>049-061>064-073>077-083>087-281700-
SOUTH CENTRAL NEBRASKA

CITY           SKY/WX    TMP DP  RH WIND       PRES   REMARKS
GRAND ISLAND   PTSUNNY   42  29  59 SW6       29.81F
AURORA         MOSUNNY   40  28  63 W6        29.81F
HASTINGS       PTSUNNY   43  28  55 SW5       29.82S
HEBRON         SUNNY     42  26  53 SW8       29.85F
HOLDREGE       MOSUNNY   49  27  42 W12       29.82F
KEARNEY *      MOSUNNY   41  27  56 SW9       29.84R
YORK           MOSUNNY   36  27  69 SW6       29.83R WCI  31
$$

NEZ011>018-030>034-042>045-281700-
NORTHEAST NEBRASKA

CITY           SKY/WX    TMP DP  RH WIND       PRES   REMARKS
NORFOLK        MOSUNNY   33  23  66 SE5       29.77F WCI  29
ALBION         MOSUNNY   32  24  72 SE3       29.77F
BLAIR          MOSUNNY   36  26  66 S14       29.82F WCI  27
COLUMBUS *     MOSUNNY   32  23  69 SW6       29.82F WCI  26
FREMONT        MOSUNNY   35  26  68 S9        29.83F WCI  28
TEKAMAH        MOSUNNY   36  26  67 S9        29.85F WCI  29
WAYNE          MOSUNNY   31  24  73 S8        29.79F WCI  24
$$

NEZ050>053-065>068-078-088>093-281700-
SOUTHEAST NEBRASKA

CITY           SKY/WX    TMP DP  RH WIND       PRES   REMARKS
LINCOLN        MOSUNNY   38  25  59 S7        29.85F WCI  33
OMAHA EPPLEY   PTSUNNY   35  25  66 S12       29.86F WCI  27
BEATRICE       SUNNY     40  28  62 S8        29.85F
FALLS CITY     SUNNY     41  28  60 SW12      29.90F
NEBRASKA CITY  SUNNY     38  25  58 S12       29.87F WCI  31
PLATTSMOUTH    MOSUNNY   34  25  70 S10       29.86F WCI  26
$$

NEZ044-045-051>053-067-281700-
OMAHA AREA

CITY           SKY/WX    TMP DP  RH WIND       PRES   REMARKS
OMAHA EPPLEY   PTSUNNY   35  25  66 S12       29.86F WCI  27
BLAIR          MOSUNNY   36  26  66 S14       29.82F WCI  27
FREMONT        MOSUNNY   35  26  68 S9        29.83F WCI  28
MILLARD        MOSUNNY   35  26  69 SE7       29.84F WCI  30
OFFUTT AFB     MOSUNNY   36  26  67 S8        29.85F WCI  30
PLATTSMOUTH    MOSUNNY   34  25  70 S10       29.86F WCI  26
WAHOO          FAIR      34  25  71 S9        29.83F WCI  26
$$



USA.gov is the U.S. government's official web portal to all federal, state and local government web resources and services.